Weather History for Graham, TX

Change the Weather History Date:

Sunday, April 28, 2013

  Actual Average (KMWL) Record (KMWL)
Temperature  
Mean Temperature 69 °F -  
Max Temperature 89 °F 78 °F 93 °F (2005)
Min Temperature 49 °F 55 °F 37 °F (2008)
Cooling Degree Days 4    
Growing Degree Days 19 (Base 50)    
Moisture  
Dew Point 53 °F    
Average Humidity 60    
Maximum Humidity 97    
Minimum Humidity 22    
Precipitation  
Precipitation 0.00 in - - ()
Sea Level Pressure  
Sea Level Pressure 29.93 in    
Wind  
Wind Speed 3 mph (SE)    
Max Wind Speed 14 mph    
Max Gust Speed 18 mph    
Visibility 10 miles    
Events      
Averages and records for this station are not official NWS values.
T = Trace of Precipitation, MM = Missing Value Source: NWS Daily Summary

Daily Weather History Graph

Daily Weather History Graph

Search for Another Location

Airport:

Trip Planner

Search our weather history database for the weather conditions in past years. The results will help you decide how hot, cold, wet, or windy it might be!

Date:

Astronomy

Apr. 28, 2013 Rise Set
Actual Time 6:49 AM CDT 8:14 PM CDT
Civil Twilight 6:23 AM CDT 8:40 PM CDT
Nautical Twilight 5:51 AM CDT 9:12 PM CDT
Astronomical Twilight 5:19 AM CDT 9:44 PM CDT
Moon 11:40 PM CDT (4/28) 9:13 AM CDT (4/28)
Length of Visible Light 14h 17m
Length of Day
13h 25m
Waning Gibbous, 88% of the Moon is Illuminated
Apr 28
Waning Gibbous
May 2
Last Quarter
May 9
New
May 17
First Quarter
May 24
Full

Hourly Weather History & Observations

Time (CDT) Temp. Heat Index Dew Point Humidity Pressure Visibility Wind Dir Wind Speed Gust Speed Precip Events Conditions
12:15 AM 55.4 °F - 46.4 °F 72% 30.02 in 10.0 mi Calm Calm - N/A   Clear
12:35 AM 54.7 °F - 46.6 °F 74% 30.02 in 10.0 mi Calm Calm - N/A   Clear
12:55 AM 54.0 °F - 46.4 °F 76% 30.01 in 10.0 mi Calm Calm - N/A   Clear
1:15 AM 52.7 °F - 46.8 °F 80% 30.01 in 10.0 mi Calm Calm - N/A   Clear
1:35 AM 53.2 °F - 47.3 °F 80% 30.01 in 10.0 mi Calm Calm - N/A   Clear
1:55 AM 54.1 °F - 48.9 °F 82% 30.01 in 10.0 mi Calm Calm - N/A   Clear
2:15 AM 55.2 °F - 49.5 °F 81% 30.00 in 10.0 mi SE 3.5 mph - N/A   Clear
2:35 AM 56.3 °F - 50.7 °F 82% 30.00 in 10.0 mi SE 4.6 mph - N/A   Clear
2:55 AM 56.3 °F - 50.9 °F 82% 29.99 in 10.0 mi Calm Calm - N/A   Clear
3:15 AM 55.9 °F - 51.1 °F 84% 29.99 in 10.0 mi ESE 3.5 mph - N/A   Clear
3:35 AM 55.0 °F - 50.9 °F 86% 29.98 in 10.0 mi ESE 4.6 mph - N/A   Clear
3:55 AM 54.5 °F - 50.9 °F 88% 29.98 in 10.0 mi Calm Calm - N/A   Clear
4:15 AM 54.5 °F - 50.9 °F 88% 29.98 in 10.0 mi Calm Calm - N/A   Clear
4:35 AM 52.9 °F - 50.4 °F 91% 29.99 in 10.0 mi Calm Calm - N/A   Clear
4:55 AM 52.7 °F - 50.4 °F 92% 29.99 in 10.0 mi Calm Calm - N/A   Clear
5:15 AM 52.2 °F - 49.8 °F 92% 29.99 in 10.0 mi Calm Calm - N/A   Clear
5:35 AM 51.8 °F - 50.2 °F 94% 29.99 in 10.0 mi Calm Calm - N/A   Clear
5:55 AM 52.0 °F - 50.2 °F 94% 29.98 in 10.0 mi East 3.5 mph - N/A   Clear
6:15 AM 50.2 °F - 48.7 °F 95% 29.99 in 10.0 mi Calm Calm - N/A   Clear
6:35 AM 50.0 °F - 49.3 °F 97% 29.99 in 10.0 mi Calm Calm - N/A   Clear
6:55 AM 49.6 °F - 48.4 °F 95% 30.00 in 7.0 mi Calm Calm - N/A   Clear
7:15 AM 49.1 °F - 47.8 °F 95% 30.00 in 10.0 mi Calm Calm - N/A   Clear
7:35 AM 50.2 °F - 48.6 °F 94% 30.00 in 10.0 mi Calm Calm - N/A   Clear
8:15 AM 55.6 °F - 51.3 °F 85% 30.00 in 10.0 mi Calm Calm - N/A   Clear
8:35 AM 59.2 °F - 52.7 °F 79% 30.00 in 10.0 mi Calm Calm - N/A   Clear
8:55 AM 61.3 °F - 53.4 °F 75% 30.00 in 10.0 mi Calm Calm - N/A   Clear
9:15 AM 64.4 °F - 53.6 °F 68% 30.01 in 10.0 mi South 3.5 mph - N/A   Clear
9:35 AM 67.1 °F - 54.3 °F 63% 30.00 in 10.0 mi South 3.5 mph - N/A   Clear
9:55 AM 68.2 °F - 55.4 °F 64% 29.99 in 10.0 mi SSE 5.8 mph - N/A   Clear
10:15 AM 70.3 °F - 56.5 °F 61% 29.99 in 10.0 mi South 3.5 mph - N/A   Clear
10:35 AM 70.9 °F - 56.8 °F 61% 29.98 in 10.0 mi West 3.5 mph - N/A   Clear
10:55 AM 72.7 °F - 56.3 °F 56% 29.98 in 10.0 mi WSW 3.5 mph - N/A   Clear
11:15 AM 73.9 °F - 55.9 °F 53% 29.98 in 10.0 mi WNW 3.5 mph - N/A   Clear
11:35 AM 75.4 °F - 54.9 °F 49% 29.98 in 10.0 mi WNW 4.6 mph - N/A   Clear
11:55 AM 76.1 °F - 54.5 °F 47% 29.97 in 10.0 mi WNW 6.9 mph - N/A   Clear
12:15 PM 77.2 °F - 53.8 °F 44% 29.96 in 10.0 mi ENE 3.5 mph - N/A   Clear
12:35 PM 80.1 °F - 52.3 °F 38% 29.96 in 10.0 mi West 8.1 mph - N/A   Clear
12:55 PM 81.5 °F - 51.4 °F 35% 29.95 in 10.0 mi SW 4.6 mph - N/A   Clear
1:15 PM 82.9 °F - 51.8 °F 34% 29.94 in 10.0 mi SSE 3.5 mph - N/A   Clear
1:35 PM 84.0 °F - 51.6 °F 33% 29.92 in 10.0 mi SW 10.4 mph 16.1 mph N/A   Clear
1:55 PM 84.4 °F - 52.0 °F 33% 29.92 in 10.0 mi ESE 4.6 mph - N/A   Clear
2:15 PM 85.3 °F - 52.5 °F 32% 29.91 in 10.0 mi SE 6.9 mph - N/A   Clear
2:35 PM 85.8 °F - 52.2 °F 31% 29.90 in 10.0 mi SE 10.4 mph - N/A   Clear
2:55 PM 86.9 °F - 51.6 °F 30% 29.89 in 10.0 mi WSW 3.5 mph - N/A   Clear
3:15 PM 86.9 °F - 51.1 °F 29% 29.88 in 10.0 mi SSE 3.5 mph - N/A   Clear
3:55 PM 89.1 °F - 51.3 °F 27% 29.85 in 10.0 mi South 8.1 mph - N/A   Mostly Cloudy
4:15 PM 85.8 °F - 50.7 °F 30% 29.84 in 10.0 mi SSE 5.8 mph - N/A   Scattered Clouds
4:35 PM 84.7 °F - 50.7 °F 31% 29.83 in 10.0 mi SE 8.1 mph - N/A   Clear
4:55 PM 88.3 °F - 51.1 °F 28% 29.83 in 10.0 mi SE 10.4 mph - N/A   Clear
5:15 PM 86.5 °F - 50.4 °F 29% 29.83 in 10.0 mi SSE 11.5 mph 16.1 mph N/A   Clear
5:35 PM 87.1 °F - 46.6 °F 24% 29.81 in 10.0 mi SE 10.4 mph 17.3 mph N/A   Clear
5:55 PM 87.3 °F - 44.8 °F 23% 29.81 in 10.0 mi SE 10.4 mph 17.3 mph N/A   Clear
6:15 PM 87.6 °F - 44.8 °F 22% 29.81 in 10.0 mi SE 9.2 mph 16.1 mph N/A   Clear
6:35 PM 87.6 °F - 45.3 °F 23% 29.81 in 10.0 mi SE 12.7 mph 17.3 mph N/A   Clear
7:15 PM 85.6 °F - 48.4 °F 27% 29.81 in 10.0 mi ESE 12.7 mph 17.3 mph N/A   Clear
7:35 PM 82.9 °F 82.4 °F 57.2 °F 41% 29.81 in 10.0 mi ESE 13.8 mph 18.4 mph N/A   Clear
7:55 PM 80.6 °F 81.2 °F 59.9 °F 49% 29.82 in 10.0 mi East 11.5 mph 17.3 mph N/A   Clear
8:15 PM 79.0 °F - 61.0 °F 54% 29.82 in 10.0 mi East 9.2 mph - N/A   Clear
8:35 PM 77.9 °F - 61.3 °F 57% 29.83 in 10.0 mi ESE 10.4 mph - N/A   Clear
8:55 PM 77.0 °F - 61.3 °F 58% 29.83 in 10.0 mi ESE 8.1 mph - N/A   Clear
9:15 PM 76.1 °F - 61.7 °F 61% 29.84 in 10.0 mi ESE 8.1 mph - N/A   Clear
9:35 PM 75.4 °F - 61.7 °F 62% 29.84 in 10.0 mi ESE 9.2 mph - N/A   Clear
9:55 PM 74.8 °F - 61.5 °F 63% 29.84 in 10.0 mi SE 10.4 mph 16.1 mph N/A   Clear
10:15 PM 74.5 °F - 60.8 °F 62% 29.84 in 10.0 mi SE 10.4 mph 17.3 mph N/A   Clear
10:35 PM 73.8 °F - 60.3 °F 63% 29.84 in 10.0 mi SE 8.1 mph - N/A   Clear
10:55 PM 73.0 °F - 59.4 °F 62% 29.85 in 10.0 mi SE 9.2 mph - N/A   Clear
11:15 PM 73.0 °F - 58.5 °F 60% 29.85 in 10.0 mi SE 9.2 mph - N/A   Clear
11:35 PM 72.5 °F - 58.1 °F 60% 29.85 in 10.0 mi SE 8.1 mph 16.1 mph N/A   Clear
11:55 PM 72.5 °F - 57.4 °F 59% 29.85 in 10.0 mi SSE 11.5 mph 17.3 mph N/A   Clear